Weather History for Nashua, NH

Change the Weather History Date:

Wednesday, January 9, 2013

  Actual Average Record
Temperature  
Mean Temperature 30 °F -  
Max Temperature 43 °F 30 °F 57 °F (2008)
Min Temperature 16 °F 9 °F -10 °F (1968)
Degree Days  
Heating Degree Days 36    
Moisture  
Dew Point 23 °F    
Average Humidity 74    
Maximum Humidity 89    
Minimum Humidity 46    
Precipitation  
Precipitation 0.02 in - - ()
Sea Level Pressure  
Sea Level Pressure 30.24 in    
Wind  
Wind Speed 1 mph (WNW)    
Max Wind Speed 4 mph    
Max Gust Speed -    
Visibility 9 miles    
Events Rain    
Averages and records for this station are not official NWS values.
T = Trace of Precipitation, MM = Missing Value Source: NWS Daily Summary

Daily Weather History Graph

Daily Weather History Graph

Search for Another Location

Airport:

Trip Planner

Search our weather history database for the weather conditions in past years. The results will help you decide how hot, cold, wet, or windy it might be!

Date:

Astronomy

Jan. 09, 2013 Rise Set
Actual Time 7:15 AM EST 4:30 PM EST
Civil Twilight 6:44 AM EST 5:02 PM EST
Nautical Twilight 6:09 AM EST 5:37 PM EST
Astronomical Twilight 5:34 AM EST 6:11 PM EST
Moon 4:52 AM EST (1/9) 2:29 PM EST (1/9)
Length of Visible Light 10h 18m
Length of Day
9h 15m
Waning Crescent, 6% of the Moon is Illuminated
Jan 9
Waning Crescent
Jan 11
New
Jan 18
First Quarter
Jan 26
Full
Feb 3
Last Quarter

Hourly Weather History & Observations

Time (EST) Temp. Windchill Dew Point Humidity Pressure Visibility Wind Dir Wind Speed Gust Speed Precip Events Conditions
12:51 AM 24.1 °F - 20.1 °F 85% 30.39 in 9.0 mi North - - N/A   Clear
1:51 AM 23.0 °F - 20.1 °F 89% 30.39 in 9.0 mi North - - N/A   Clear
2:51 AM 23.0 °F - 20.1 °F 89% 30.39 in 8.0 mi North - - N/A   Clear
3:51 AM 22.1 °F - 19.0 °F 88% 30.39 in 7.0 mi North - - N/A   Clear
4:51 AM 21.0 °F - 18.1 °F 89% 30.39 in 7.0 mi North - - N/A   Clear
5:51 AM 19.0 °F - 16.2 °F 89% 30.40 in 8.0 mi North - - N/A   Clear
6:51 AM 16.2 °F - 12.0 °F 84% 30.42 in 9.0 mi North - - N/A   Clear
7:51 AM 18.1 °F - 15.1 °F 88% 30.42 in 6.0 mi Calm Calm - N/A   Clear
8:51 AM 19.0 °F 13.9 °F 14.0 °F 81% 30.41 in 8.0 mi WNW 3.5 mph - N/A   Clear
9:51 AM 23.0 °F - 19.0 °F 85% 30.38 in 8.0 mi Calm Calm - N/A   Clear
10:51 AM 27.1 °F - 21.0 °F 78% 30.36 in 7.0 mi Calm Calm - N/A   Clear
11:51 AM 32.0 °F - 22.1 °F 67% 30.28 in 7.0 mi North - - N/A   Clear
1:51 PM 37.9 °F - 24.1 °F 57% 30.20 in 10.0 mi North - - 0.01 in   Clear
2:51 PM 36.0 °F - 27.1 °F 70% 30.14 in 10.0 mi North - - N/A   Clear
3:51 PM 38.8 °F - 28.0 °F 65% 30.07 in 9.0 mi North - - 0.00 in Rain Light Rain
4:51 PM 39.9 °F - 28.0 °F 63% 30.04 in 10.0 mi North - - 0.01 in   Overcast
5:51 PM 38.8 °F - 29.1 °F 68% 30.01 in 10.0 mi North - - N/A   Scattered Clouds
6:51 PM 39.9 °F - 32.0 °F 73% 30.00 in 10.0 mi North - - N/A   Clear
8:51 PM 43.0 °F - 32.0 °F 65% 30.00 in 10.0 mi North - - N/A   Clear
9:51 PM 43.0 °F - 30.0 °F 60% 30.01 in 10.0 mi North - - N/A   Clear
10:51 PM 43.9 °F - 25.2 °F 48% 30.04 in 10.0 mi North - - N/A   Overcast
11:51 PM 43.9 °F - 24.1 °F 46% 30.04 in 10.0 mi North - - N/A   Overcast